Location: Unspecified
(48.8656°N, 0.0000°E)
Time: 04:08:43
(UTC+00:00)

Transit 2A Rocket - Pass Details

Date: 25 June 2019
Orbit: 593 x 910 km, 66.7° (Epoch: 12 October)

Event Time Altitude Azimuth Distance (km) Brightness Sun altitude
Rises 10:03:09 0° 221° (SW) 3,529 8.4 55.3°
Reaches altitude 10° 10:05:42 10° 224° (SW) 2,587 7.8 55.7°
Maximum altitude 10:11:45 71° 308° (NW) 938 6.2 56.5°
Drops below altitude 10° 10:17:34 10° 33° (NNE) 2,486 7.7 57.2°
Sets 10:19:59 0° 36° (NE) 3,384 8.3 57.5°
